owner,sensor,date,latitude,longitude,vertical_datum,direction_of_sea_water_velocity,sea_water_speed,upward_sea_water_velocity,qcFlag 
TABS,ioos:station:wmo:42045:1,2004-02-01T00:00:00Z,26.2168,-96.4998,2.0,235.6087611,11.79103473,-99999.0,'11111222,11111222,99999999' 
TABS,ioos:station:wmo:42045:1,2004-02-01T00:30:00Z,26.2168,-96.4998,2.0,236.4691878,9.95690715,-99999.0,'11133222,11111222,99999999' 
TABS,ioos:station:wmo:42045:1,2004-02-01T01:00:00Z,26.2168,-96.4998,2.0,242.8202697,7.925080441,-99999.0,'11133222,11111222,99999999' 
TABS,ioos:station:wmo:42045:1,2004-02-01T01:30:00Z,26.2168,-96.4998,2.0,249.7525113,8.899938202,-99999.0,'11133222,11111222,99999999' 
TABS,ioos:station:wmo:42045:1,2004-02-01T02:00:00Z,26.2168,-96.4998,2.0,253.6841477,8.294003858,-99999.0,'11133222,11111222,99999999' 
TABS,ioos:station:wmo:42045:1,2004-02-01T02:30:00Z,26.2168,-96.4998,2.0,249.2493989,5.87081766,-99999.0,'11133222,11111222,99999999' 
TABS,ioos:station:wmo:42045:1,2004-02-01T03:00:00Z,26.2168,-96.4998,2.0,257.9382978,7.178467803,-99999.0,'11133222,11111222,99999999' 
TABS,ioos:station:wmo:42045:1,2004-02-01T03:30:00Z,26.2168,-96.4998,2.0,242.1678166,3.641208591,-99999.0,'11133222,11111222,99999999' 
TABS,ioos:station:wmo:42045:1,2004-02-01T04:00:00Z,26.2168,-96.4998,2.0,270.2442307,2.350021276,-99999.0,'11133222,11111222,99999999' 
TABS,ioos:station:wmo:42045:1,2004-02-01T04:30:00Z,26.2168,-96.4998,2.0,264.0595557,3.47867791,-99999.0,'11133222,11111222,99999999' 
TABS,ioos:station:wmo:42045:1,2004-02-01T05:00:00Z,26.2168,-96.4998,2.0,205.9552734,4.204045671,-99999.0,'11133222,11111222,99999999' 
TABS,ioos:station:wmo:42045:1,2004-02-01T05:30:00Z,26.2168,-96.4998,2.0,211.5345077,3.09741828,-99999.0,'11133222,11111222,99999999' 
TABS,ioos:station:wmo:42045:1,2004-02-01T06:00:00Z,26.2168,-96.4998,2.0,230.0003172,3.407080862,-99999.0,'11133222,11111222,99999999' 
TABS,ioos:station:wmo:42045:1,2004-02-01T06:30:00Z,26.2168,-96.4998,2.0,228.4290302,3.782723886,-99999.0,'11133222,11111222,99999999' 
TABS,ioos:station:wmo:42045:1,2004-02-01T07:00:00Z,26.2168,-96.4998,2.0,220.3307288,3.909130338,-99999.0,'11133222,11111222,99999999' 
TABS,ioos:station:wmo:42045:1,2004-02-01T07:30:00Z,26.2168,-96.4998,2.0,159.2134851,5.241144913,-99999.0,'11133222,11111222,99999999' 
TABS,ioos:station:wmo:42045:1,2004-02-01T08:00:00Z,26.2168,-96.4998,2.0,139.5738053,3.192146613,-99999.0,'11133222,11111222,99999999' 
TABS,ioos:station:wmo:42045:1,2004-02-01T08:30:00Z,26.2168,-96.4998,2.0,166.0105618,5.915445883,-99999.0,'11133222,11111222,99999999' 
TABS,ioos:station:wmo:42045:1,2004-02-01T09:00:00Z,26.2168,-96.4998,2.0,159.1674957,4.611474818,-99999.0,'11133222,11111222,99999999' 
TABS,ioos:station:wmo:42045:1,2004-02-01T09:30:00Z,26.2168,-96.4998,2.0,182.5111469,5.705479822,-99999.0,'11133222,11111222,99999999' 
TABS,ioos:station:wmo:42045:1,2004-02-01T10:00:00Z,26.2168,-96.4998,2.0,196.0669097,5.817233019,-99999.0,'11133222,11111222,99999999' 
TABS,ioos:station:wmo:42045:1,2004-02-01T10:30:00Z,26.2168,-96.4998,2.0,170.5986265,9.244160319,-99999.0,'11133222,11111222,99999999' 
TABS,ioos:station:wmo:42045:1,2004-02-01T11:00:00Z,26.2168,-96.4998,2.0,194.6683161,5.054750241,-99999.0,'11133222,11111222,99999999' 
TABS,ioos:station:wmo:42045:1,2004-02-01T11:30:00Z,26.2168,-96.4998,2.0,199.1652012,1.736231551,-99999.0,'11133222,11111222,99999999' 
TABS,ioos:station:wmo:42045:1,2004-02-01T12:00:00Z,26.2168,-96.4998,2.0,191.5704672,6.032594798,-99999.0,'11133222,11111222,99999999' 
TABS,ioos:station:wmo:42045:1,2004-02-01T12:30:00Z,26.2168,-96.4998,2.0,187.2806718,4.103084206,-99999.0,'11133222,11111222,99999999' 
TABS,ioos:station:wmo:42045:1,2004-02-01T13:00:00Z,26.2168,-96.4998,2.0,222.7090796,8.138230766,-99999.0,'11133222,11111222,99999999' 
TABS,ioos:station:wmo:42045:1,2004-02-01T13:30:00Z,26.2168,-96.4998,2.0,204.4142141,6.435464241,-99999.0,'11133222,11111222,99999999' 
TABS,ioos:station:wmo:42045:1,2004-02-01T14:00:00Z,26.2168,-96.4998,2.0,194.8542103,8.152453618,-99999.0,'11133222,11111222,99999999' 
TABS,ioos:station:wmo:42045:1,2004-02-01T14:30:00Z,26.2168,-96.4998,2.0,223.3345821,2.433474882,-99999.0,'11133222,11111222,99999999' 
TABS,ioos:station:wmo:42045:1,2004-02-01T15:00:00Z,26.2168,-96.4998,2.0,224.0681299,3.47942524,-99999.0,'11133222,11111222,99999999' 
TABS,ioos:station:wmo:42045:1,2004-02-01T16:00:00Z,26.2168,-96.4998,2.0,244.3748796,7.630491465,-99999.0,'11133222,11111222,99999999' 
TABS,ioos:station:wmo:42045:1,2004-02-01T16:30:00Z,26.2168,-96.4998,2.0,251.5131485,7.03290836,-99999.0,'11133222,11111222,99999999' 
TABS,ioos:station:wmo:42045:1,2004-02-01T17:00:00Z,26.2168,-96.4998,2.0,250.6832714,4.111447434,-99999.0,'11133222,11111222,99999999' 
TABS,ioos:station:wmo:42045:1,2004-02-01T17:30:00Z,26.2168,-96.4998,2.0,255.3547461,5.023196194,-99999.0,'11133222,11111222,99999999' 
TABS,ioos:station:wmo:42045:1,2004-02-01T18:00:00Z,26.2168,-96.4998,2.0,271.8680954,6.443423003,-99999.0,'11133222,11111222,99999999' 
TABS,ioos:station:wmo:42045:1,2004-02-01T19:00:00Z,26.2168,-96.4998,2.0,284.3817819,5.636630199,-99999.0,'11133222,11111222,99999999' 
TABS,ioos:station:wmo:42045:1,2004-02-01T19:30:00Z,26.2168,-96.4998,2.0,298.0619079,6.164705995,-99999.0,'11133222,11111222,99999999' 
TABS,ioos:station:wmo:42045:1,2004-02-01T20:00:00Z,26.2168,-96.4998,2.0,290.1295434,5.027056793,-99999.0,'11133222,11111222,99999999' 
TABS,ioos:station:wmo:42045:1,2004-02-01T20:30:00Z,26.2168,-96.4998,2.0,295.3465376,3.784283287,-99999.0,'11133222,11111222,99999999' 
TABS,ioos:station:wmo:42045:1,2004-02-01T21:00:00Z,26.2168,-96.4998,2.0,288.7693197,5.967319331,-99999.0,'11133222,11111222,99999999' 
TABS,ioos:station:wmo:42045:1,2004-02-01T22:00:00Z,26.2168,-96.4998,2.0,298.8713713,3.334441482,-99999.0,'11133222,11111222,99999999' 
TABS,ioos:station:wmo:42045:1,2004-02-01T22:30:00Z,26.2168,-96.4998,2.0,282.5415795,5.019770911,-99999.0,'11133222,11111222,99999999' 
TABS,ioos:station:wmo:42045:1,2004-02-01T23:00:00Z,26.2168,-96.4998,2.0,272.0628078,3.612339962,-99999.0,'11133222,11111222,99999999' 
TABS,ioos:station:wmo:42045:1,2004-02-01T23:30:00Z,26.2168,-96.4998,2.0,230.1941011,3.045997374,-99999.0,'11133222,11111222,99999999' 
TABS,ioos:station:wmo:42045:1,2004-02-02T00:00:00Z,26.2168,-96.4998,2.0,226.7895907,4.980461826,-99999.0,'11133222,11111222,99999999' 
TABS,ioos:station:wmo:42045:1,2004-02-02T00:30:00Z,26.2168,-96.4998,2.0,221.8903841,5.736009066,-99999.0,'11133222,11111222,99999999' 
TABS,ioos:station:wmo:42045:1,2004-02-02T01:00:00Z,26.2168,-96.4998,2.0,226.8472903,6.57951366,-99999.0,'11133222,11111222,99999999' 
TABS,ioos:station:wmo:42045:1,2004-02-02T01:30:00Z,26.2168,-96.4998,2.0,220.6087235,8.035104231,-99999.0,'11133222,11111222,99999999' 
TABS,ioos:station:wmo:42045:1,2004-02-02T02:00:00Z,26.2168,-96.4998,2.0,226.3904037,6.118275901,-99999.0,'11133222,11111222,99999999' 
TABS,ioos:station:wmo:42045:1,2004-02-02T02:30:00Z,26.2168,-96.4998,2.0,228.1552828,8.349449084,-99999.0,'11133222,11111222,99999999' 
TABS,ioos:station:wmo:42045:1,2004-02-02T03:00:00Z,26.2168,-96.4998,2.0,233.7119884,7.282375986,-99999.0,'11133222,11111222,99999999' 
TABS,ioos:station:wmo:42045:1,2004-02-02T03:30:00Z,26.2168,-96.4998,2.0,218.7866787,9.147119765,-99999.0,'11133222,11111222,99999999' 
TABS,ioos:station:wmo:42045:1,2004-02-02T04:00:00Z,26.2168,-96.4998,2.0,217.6205011,8.698747036,-99999.0,'11133222,11111222,99999999' 
TABS,ioos:station:wmo:42045:1,2004-02-02T04:30:00Z,26.2168,-96.4998,2.0,220.3149901,11.0820305,-99999.0,'11111222,11111222,99999999' 
TABS,ioos:station:wmo:42045:1,2004-02-02T05:00:00Z,26.2168,-96.4998,2.0,208.6980141,9.371147208,-99999.0,'11133222,11111222,99999999' 
TABS,ioos:station:wmo:42045:1,2004-02-02T05:30:00Z,26.2168,-96.4998,2.0,213.6623378,11.58214143,-99999.0,'11111222,11111222,99999999' 
TABS,ioos:station:wmo:42045:1,2004-02-02T06:00:00Z,26.2168,-96.4998,2.0,212.0050979,11.98115604,-99999.0,'11111222,11111222,99999999' 
TABS,ioos:station:wmo:42045:1,2004-02-02T06:30:00Z,26.2168,-96.4998,2.0,198.1917715,10.44193469,-99999.0,'11111222,11111222,99999999' 
TABS,ioos:station:wmo:42045:1,2004-02-02T07:00:00Z,26.2168,-96.4998,2.0,204.7133632,13.01176391,-99999.0,'11111222,11111222,99999999' 
TABS,ioos:station:wmo:42045:1,2004-02-02T07:30:00Z,26.2168,-96.4998,2.0,199.8254146,13.68088082,-99999.0,'11111222,11111222,99999999' 
TABS,ioos:station:wmo:42045:1,2004-02-02T08:00:00Z,26.2168,-96.4998,2.0,201.8530306,12.30417815,-99999.0,'11111222,11111222,99999999' 
TABS,ioos:station:wmo:42045:1,2004-02-02T08:30:00Z,26.2168,-96.4998,2.0,202.1017852,13.44824152,-99999.0,'11111222,11111222,99999999' 
TABS,ioos:station:wmo:42045:1,2004-02-02T09:00:00Z,26.2168,-96.4998,2.0,196.825619,14.30229702,-99999.0,'11111222,11111222,99999999' 
TABS,ioos:station:wmo:42045:1,2004-02-02T09:30:00Z,26.2168,-96.4998,2.0,192.4626098,16.95963443,-99999.0,'11111222,11111222,99999999' 
TABS,ioos:station:wmo:42045:1,2004-02-02T10:00:00Z,26.2168,-96.4998,2.0,191.7279849,40.83246747,-99999.0,'11111222,11111222,99999999' 
TABS,ioos:station:wmo:42045:1,2004-02-02T10:30:00Z,26.2168,-96.4998,2.0,195.925832,40.74389279,-99999.0,'11111222,11111222,99999999' 
TABS,ioos:station:wmo:42045:1,2004-02-02T11:00:00Z,26.2168,-96.4998,2.0,202.1987787,41.47419559,-99999.0,'11111222,11111222,99999999' 
TABS,ioos:station:wmo:42045:1,2004-02-02T11:30:00Z,26.2168,-96.4998,2.0,201.9147638,38.39444361,-99999.0,'11111222,11111222,99999999' 
TABS,ioos:station:wmo:42045:1,2004-02-02T12:00:00Z,26.2168,-96.4998,2.0,203.2409973,37.02448514,-99999.0,'11111222,11111222,99999999' 
TABS,ioos:station:wmo:42045:1,2004-02-02T12:30:00Z,26.2168,-96.4998,2.0,206.5138103,35.19125175,-99999.0,'11111222,11111222,99999999' 
TABS,ioos:station:wmo:42045:1,2004-02-02T13:00:00Z,26.2168,-96.4998,2.0,209.1920081,33.95236663,-99999.0,'11111222,11111222,99999999' 
TABS,ioos:station:wmo:42045:1,2004-02-02T13:30:00Z,26.2168,-96.4998,2.0,201.7343699,33.45860876,-99999.0,'11111222,11111222,99999999' 
TABS,ioos:station:wmo:42045:1,2004-02-02T14:00:00Z,26.2168,-96.4998,2.0,196.2507281,34.76920045,-99999.0,'11111222,11111222,99999999' 
TABS,ioos:station:wmo:42045:1,2004-02-02T14:30:00Z,26.2168,-96.4998,2.0,191.0530949,39.84923713,-99999.0,'11111222,11111222,99999999' 
TABS,ioos:station:wmo:42045:1,2004-02-02T15:00:00Z,26.2168,-96.4998,2.0,188.0395952,42.18462872,-99999.0,'11111222,11111222,99999999' 
TABS,ioos:station:wmo:42045:1,2004-02-02T15:30:00Z,26.2168,-96.4998,2.0,190.9950575,43.56981753,-99999.0,'11111222,11111222,99999999' 
TABS,ioos:station:wmo:42045:1,2004-02-02T16:00:00Z,26.2168,-96.4998,2.0,193.8123358,44.73361152,-99999.0,'11111222,11111222,99999999' 
TABS,ioos:station:wmo:42045:1,2004-02-02T16:30:00Z,26.2168,-96.4998,2.0,190.6515204,49.34019153,-99999.0,'11111222,11111222,99999999' 
TABS,ioos:station:wmo:42045:1,2004-02-02T17:00:00Z,26.2168,-96.4998,2.0,193.2326927,47.57318783,-99999.0,'11111222,11111222,99999999' 
TABS,ioos:station:wmo:42045:1,2004-02-02T17:30:00Z,26.2168,-96.4998,2.0,193.2981256,49.90826885,-99999.0,'11111222,11111222,99999999' 
TABS,ioos:station:wmo:42045:1,2004-02-02T18:00:00Z,26.2168,-96.4998,2.0,195.2247826,46.76123181,-99999.0,'11111222,11111222,99999999' 
TABS,ioos:station:wmo:42045:1,2004-02-02T18:30:00Z,26.2168,-96.4998,2.0,194.0992214,48.35678236,-99999.0,'11111222,11111222,99999999' 
TABS,ioos:station:wmo:42045:1,2004-02-02T19:00:00Z,26.2168,-96.4998,2.0,198.0867873,49.47474608,-99999.0,'11111222,11111222,99999999' 
TABS,ioos:station:wmo:42045:1,2004-02-02T19:30:00Z,26.2168,-96.4998,2.0,197.781575,49.93560854,-99999.0,'11111222,11111222,99999999' 
TABS,ioos:station:wmo:42045:1,2004-02-02T20:00:00Z,26.2168,-96.4998,2.0,199.8868221,47.91757089,-99999.0,'11111222,11111222,99999999' 
TABS,ioos:station:wmo:42045:1,2004-02-02T20:30:00Z,26.2168,-96.4998,2.0,198.3116714,48.60115739,-99999.0,'11111222,11111222,99999999' 
TABS,ioos:station:wmo:42045:1,2004-02-02T21:00:00Z,26.2168,-96.4998,2.0,199.5063086,49.20415938,-99999.0,'11111222,11111222,99999999' 
TABS,ioos:station:wmo:42045:1,2004-02-02T21:30:00Z,26.2168,-96.4998,2.0,198.5922087,46.01131383,-99999.0,'11111222,11111222,99999999' 
TABS,ioos:station:wmo:42045:1,2004-02-02T22:00:00Z,26.2168,-96.4998,2.0,200.9242424,44.04466483,-99999.0,'11111222,11111222,99999999' 
TABS,ioos:station:wmo:42045:1,2004-02-02T22:30:00Z,26.2168,-96.4998,2.0,204.3268778,41.00050853,-99999.0,'11111222,11111222,99999999' 
TABS,ioos:station:wmo:42045:1,2004-02-02T23:00:00Z,26.2168,-96.4998,2.0,199.5856179,41.40573028,-99999.0,'11111222,11111222,99999999' 
TABS,ioos:station:wmo:42045:1,2004-02-02T23:30:00Z,26.2168,-96.4998,2.0,201.3315221,39.42073059,-99999.0,'11111222,11111222,99999999' 
TABS,ioos:station:wmo:42045:1,2004-02-03T00:00:00Z,26.2168,-96.4998,2.0,205.5707376,38.66743462,-99999.0,'11111222,11111222,99999999' 
TABS,ioos:station:wmo:42045:1,2004-02-03T00:30:00Z,26.2168,-96.4998,2.0,197.8647336,35.9220893,-99999.0,'11111222,11111222,99999999' 
TABS,ioos:station:wmo:42045:1,2004-02-03T01:00:00Z,26.2168,-96.4998,2.0,200.6048603,30.0632001,-99999.0,'11111222,11111222,99999999' 
TABS,ioos:station:wmo:42045:1,2004-02-03T01:30:00Z,26.2168,-96.4998,2.0,196.6970089,27.635204,-99999.0,'11111222,11111222,99999999' 
TABS,ioos:station:wmo:42045:1,2004-02-03T02:00:00Z,26.2168,-96.4998,2.0,188.3513348,25.61159893,-99999.0,'11111222,11111222,99999999' 
TABS,ioos:station:wmo:42045:1,2004-02-03T02:30:00Z,26.2168,-96.4998,2.0,187.3326551,26.32530532,-99999.0,'11111222,11111222,99999999' 
TABS,ioos:station:wmo:42045:1,2004-02-03T03:00:00Z,26.2168,-96.4998,2.0,183.4316673,26.22703376,-99999.0,'11111222,11111222,99999999' 
TABS,ioos:station:wmo:42045:1,2004-02-03T03:30:00Z,26.2168,-96.4998,2.0,183.551191,24.37681275,-99999.0,'11111222,11111222,99999999' 
TABS,ioos:station:wmo:42045:1,2004-02-03T04:00:00Z,26.2168,-96.4998,2.0,189.7457291,24.57466175,-99999.0,'11111222,11111222,99999999' 
TABS,ioos:station:wmo:42045:1,2004-02-03T04:30:00Z,26.2168,-96.4998,2.0,192.6795262,22.64219512,-99999.0,'11111222,11111222,99999999' 
TABS,ioos:station:wmo:42045:1,2004-02-03T05:00:00Z,26.2168,-96.4998,2.0,188.0162234,24.9538474,-99999.0,'11111222,11111222,99999999' 
TABS,ioos:station:wmo:42045:1,2004-02-03T05:30:00Z,26.2168,-96.4998,2.0,181.63283,23.1594063,-99999.0,'11111222,11111222,99999999' 
TABS,ioos:station:wmo:42045:1,2004-02-03T06:00:00Z,26.2168,-96.4998,2.0,186.248746,27.74485177,-99999.0,'11111222,11111222,99999999' 
TABS,ioos:station:wmo:42045:1,2004-02-03T06:30:00Z,26.2168,-96.4998,2.0,185.6929005,26.10878205,-99999.0,'11111222,11111222,99999999' 
TABS,ioos:station:wmo:42045:1,2004-02-03T07:00:00Z,26.2168,-96.4998,2.0,191.3721681,26.97971275,-99999.0,'11111222,11111222,99999999' 
TABS,ioos:station:wmo:42045:1,2004-02-03T07:30:00Z,26.2168,-96.4998,2.0,181.4724158,26.84886776,-99999.0,'11111222,11111222,99999999' 
TABS,ioos:station:wmo:42045:1,2004-02-03T08:00:00Z,26.2168,-96.4998,2.0,188.070622,27.35090492,-99999.0,'11111222,11111222,99999999' 
TABS,ioos:station:wmo:42045:1,2004-02-03T08:30:00Z,26.2168,-96.4998,2.0,175.7319062,26.87452325,-99999.0,'11111222,11111222,99999999' 
TABS,ioos:station:wmo:42045:1,2004-02-03T09:00:00Z,26.2168,-96.4998,2.0,190.973277,27.05468721,-99999.0,'11111222,11111222,99999999' 
TABS,ioos:station:wmo:42045:1,2004-02-03T09:30:00Z,26.2168,-96.4998,2.0,188.269848,28.36496607,-99999.0,'11111222,11111222,99999999' 
TABS,ioos:station:wmo:42045:1,2004-02-03T10:00:00Z,26.2168,-96.4998,2.0,187.1768717,28.65451622,-99999.0,'11111222,11111222,99999999' 
TABS,ioos:station:wmo:42045:1,2004-02-03T10:30:00Z,26.2168,-96.4998,2.0,187.1733817,27.78751158,-99999.0,'11111222,11111222,99999999' 
TABS,ioos:station:wmo:42045:1,2004-02-03T11:00:00Z,26.2168,-96.4998,2.0,184.9104574,28.15334083,-99999.0,'11111222,11111222,99999999' 
TABS,ioos:station:wmo:42045:1,2004-02-03T11:30:00Z,26.2168,-96.4998,2.0,191.004571,24.67372084,-99999.0,'11111222,11111222,99999999' 
TABS,ioos:station:wmo:42045:1,2004-02-03T12:00:00Z,26.2168,-96.4998,2.0,196.6201807,25.06729543,-99999.0,'11111222,11111222,99999999' 
TABS,ioos:station:wmo:42045:1,2004-02-03T12:30:00Z,26.2168,-96.4998,2.0,194.3409931,22.32572059,-99999.0,'11111222,11111222,99999999' 
TABS,ioos:station:wmo:42045:1,2004-02-03T13:00:00Z,26.2168,-96.4998,2.0,197.927052,26.05502831,-99999.0,'11111222,11111222,99999999' 
TABS,ioos:station:wmo:42045:1,2004-02-03T13:30:00Z,26.2168,-96.4998,2.0,202.7084,27.79464877,-99999.0,'11111222,11111222,99999999' 
TABS,ioos:station:wmo:42045:1,2004-02-03T14:00:00Z,26.2168,-96.4998,2.0,198.3882268,27.29362746,-99999.0,'11111222,11111222,99999999' 
TABS,ioos:station:wmo:42045:1,2004-02-03T14:30:00Z,26.2168,-96.4998,2.0,199.7096756,24.72880911,-99999.0,'11111222,11111222,99999999' 
TABS,ioos:station:wmo:42045:1,2004-02-03T15:00:00Z,26.2168,-96.4998,2.0,206.9763302,23.03656658,-99999.0,'11111222,11111222,99999999' 
TABS,ioos:station:wmo:42045:1,2004-02-03T15:30:00Z,26.2168,-96.4998,2.0,198.132612,23.39169297,-99999.0,'11111222,11111222,99999999' 
TABS,ioos:station:wmo:42045:1,2004-02-03T16:00:00Z,26.2168,-96.4998,2.0,218.862254,22.949878,-99999.0,'11111222,11111222,99999999' 
TABS,ioos:station:wmo:42045:1,2004-02-03T16:30:00Z,26.2168,-96.4998,2.0,216.0812826,20.2059125,-99999.0,'11111222,11111222,99999999' 
TABS,ioos:station:wmo:42045:1,2004-02-03T17:00:00Z,26.2168,-96.4998,2.0,204.3704787,21.37459473,-99999.0,'11111222,11111222,99999999' 
TABS,ioos:station:wmo:42045:1,2004-02-03T17:30:00Z,26.2168,-96.4998,2.0,208.6523476,19.52041239,-99999.0,'11111222,11111222,99999999' 
TABS,ioos:station:wmo:42045:1,2004-02-03T18:00:00Z,26.2168,-96.4998,2.0,219.7709565,19.24266614,-99999.0,'11111222,11111222,99999999' 
TABS,ioos:station:wmo:42045:1,2004-02-03T18:30:00Z,26.2168,-96.4998,2.0,218.7068474,18.90171685,-99999.0,'11111222,11111222,99999999' 
TABS,ioos:station:wmo:42045:1,2004-02-03T19:00:00Z,26.2168,-96.4998,2.0,220.7125557,20.05308954,-99999.0,'11111222,11111222,99999999' 
TABS,ioos:station:wmo:42045:1,2004-02-03T19:30:00Z,26.2168,-96.4998,2.0,217.6177062,18.38156685,-99999.0,'11111222,11111222,99999999' 
TABS,ioos:station:wmo:42045:1,2004-02-03T20:00:00Z,26.2168,-96.4998,2.0,221.6440227,17.63719932,-99999.0,'11111222,11111222,99999999' 
TABS,ioos:station:wmo:42045:1,2004-02-03T20:30:00Z,26.2168,-96.4998,2.0,231.2734828,16.17648911,-99999.0,'11111222,11111222,99999999' 
TABS,ioos:station:wmo:42045:1,2004-02-03T21:00:00Z,26.2168,-96.4998,2.0,225.7025034,15.56459122,-99999.0,'11111222,11111222,99999999' 
TABS,ioos:station:wmo:42045:1,2004-02-03T21:30:00Z,26.2168,-96.4998,2.0,222.5937194,15.15959102,-99999.0,'11111222,11111222,99999999' 
TABS,ioos:station:wmo:42045:1,2004-02-03T22:00:00Z,26.2168,-96.4998,2.0,209.2189679,16.22442603,-99999.0,'11111222,11111222,99999999' 
TABS,ioos:station:wmo:42045:1,2004-02-03T22:30:00Z,26.2168,-96.4998,2.0,212.6773401,15.5395785,-99999.0,'11111222,11111222,99999999' 
TABS,ioos:station:wmo:42045:1,2004-02-03T23:00:00Z,26.2168,-96.4998,2.0,207.4807647,15.38611387,-99999.0,'11111222,11111222,99999999' 
TABS,ioos:station:wmo:42045:1,2004-02-03T23:30:00Z,26.2168,-96.4998,2.0,205.2130407,12.5120462,-99999.0,'11111222,11111222,99999999' 
TABS,ioos:station:wmo:42045:1,2004-02-04T00:00:00Z,26.2168,-96.4998,2.0,211.6915956,12.01101578,-99999.0,'11111222,11111222,99999999' 
TABS,ioos:station:wmo:42045:1,2004-02-04T00:30:00Z,26.2168,-96.4998,2.0,206.4189266,10.5408586,-99999.0,'11111222,11111222,99999999' 
TABS,ioos:station:wmo:42045:1,2004-02-04T01:00:00Z,26.2168,-96.4998,2.0,206.5154708,10.39324781,-99999.0,'11111222,11111222,99999999' 
TABS,ioos:station:wmo:42045:1,2004-02-04T01:30:00Z,26.2168,-96.4998,2.0,211.4428012,10.04502364,-99999.0,'11111222,11111222,99999999' 
TABS,ioos:station:wmo:42045:1,2004-02-04T02:00:00Z,26.2168,-96.4998,2.0,191.7587118,10.01007492,-99999.0,'11111222,11111222,99999999' 
TABS,ioos:station:wmo:42045:1,2004-02-04T02:30:00Z,26.2168,-96.4998,2.0,204.6945649,10.96257269,-99999.0,'11111222,11111222,99999999' 
TABS,ioos:station:wmo:42045:1,2004-02-04T03:00:00Z,26.2168,-96.4998,2.0,204.6279827,9.262613022,-99999.0,'11133222,11111222,99999999' 
TABS,ioos:station:wmo:42045:1,2004-02-04T03:30:00Z,26.2168,-96.4998,2.0,203.6266543,13.34898498,-99999.0,'11111222,11111222,99999999' 
TABS,ioos:station:wmo:42045:1,2004-02-04T04:00:00Z,26.2168,-96.4998,2.0,192.7282532,8.714149413,-99999.0,'11133222,11111222,99999999' 
TABS,ioos:station:wmo:42045:1,2004-02-04T04:30:00Z,26.2168,-96.4998,2.0,216.161327,10.35479116,-99999.0,'11111222,11111222,99999999' 
TABS,ioos:station:wmo:42045:1,2004-02-04T05:00:00Z,26.2168,-96.4998,2.0,215.9540958,10.38932625,-99999.0,'11111222,11111222,99999999' 
TABS,ioos:station:wmo:42045:1,2004-02-04T05:30:00Z,26.2168,-96.4998,2.0,204.9911182,8.142358381,-99999.0,'11133222,11111222,99999999' 
TABS,ioos:station:wmo:42045:1,2004-02-04T06:00:00Z,26.2168,-96.4998,2.0,198.5468197,8.079634893,-99999.0,'11133222,11111222,99999999' 
TABS,ioos:station:wmo:42045:1,2004-02-04T06:30:00Z,26.2168,-96.4998,2.0,226.2950937,5.630008881,-99999.0,'11133222,11111222,99999999' 
TABS,ioos:station:wmo:42045:1,2004-02-04T07:00:00Z,26.2168,-96.4998,2.0,203.680966,10.75569152,-99999.0,'11111222,11111222,99999999' 
TABS,ioos:station:wmo:42045:1,2004-02-04T07:30:00Z,26.2168,-96.4998,2.0,197.2812475,8.011672734,-99999.0,'11133222,11111222,99999999' 
TABS,ioos:station:wmo:42045:1,2004-02-04T08:00:00Z,26.2168,-96.4998,2.0,195.6879041,6.730735472,-99999.0,'11133222,11111222,99999999' 
TABS,ioos:station:wmo:42045:1,2004-02-04T08:30:00Z,26.2168,-96.4998,2.0,195.5697581,10.69237579,-99999.0,'11111222,11111222,99999999' 
TABS,ioos:station:wmo:42045:1,2004-02-04T09:00:00Z,26.2168,-96.4998,2.0,201.4938056,6.577423508,-99999.0,'11133222,11111222,99999999' 
TABS,ioos:station:wmo:42045:1,2004-02-04T09:30:00Z,26.2168,-96.4998,2.0,197.098644,10.98557691,-99999.0,'11111222,11111222,99999999' 
TABS,ioos:station:wmo:42045:1,2004-02-04T10:00:00Z,26.2168,-96.4998,2.0,174.8774168,10.08025793,-99999.0,'11111222,11111222,99999999' 
TABS,ioos:station:wmo:42045:1,2004-02-04T10:30:00Z,26.2168,-96.4998,2.0,193.9117448,10.06525211,-99999.0,'11111222,11111222,99999999' 
TABS,ioos:station:wmo:42045:1,2004-02-04T11:00:00Z,26.2168,-96.4998,2.0,187.6824437,10.32265954,-99999.0,'11111222,11111222,99999999' 
TABS,ioos:station:wmo:42045:1,2004-02-04T11:30:00Z,26.2168,-96.4998,2.0,201.1674163,10.74498953,-99999.0,'11111222,11111222,99999999' 
TABS,ioos:station:wmo:42045:1,2004-02-04T12:00:00Z,26.2168,-96.4998,2.0,175.3974342,14.4566144,-99999.0,'11111222,11111222,99999999' 
TABS,ioos:station:wmo:42045:1,2004-02-04T12:30:00Z,26.2168,-96.4998,2.0,178.2160726,8.674203133,-99999.0,'11133222,11111222,99999999' 
TABS,ioos:station:wmo:42045:1,2004-02-04T13:00:00Z,26.2168,-96.4998,2.0,170.8998605,11.69722189,-99999.0,'11111222,11111222,99999999' 
TABS,ioos:station:wmo:42045:1,2004-02-04T13:30:00Z,26.2168,-96.4998,2.0,169.6684557,11.59803863,-99999.0,'11111222,11111222,99999999' 
TABS,ioos:station:wmo:42045:1,2004-02-04T14:00:00Z,26.2168,-96.4998,2.0,177.3793917,8.74914853,-99999.0,'11133222,11111222,99999999' 
TABS,ioos:station:wmo:42045:1,2004-02-04T14:30:00Z,26.2168,-96.4998,2.0,175.6302081,9.056323757,-99999.0,'11133222,11111222,99999999' 
TABS,ioos:station:wmo:42045:1,2004-02-04T15:00:00Z,26.2168,-96.4998,2.0,199.2293351,11.62881335,-99999.0,'11111222,11111222,99999999' 
TABS,ioos:station:wmo:42045:1,2004-02-04T15:30:00Z,26.2168,-96.4998,2.0,199.0375092,13.82624316,-99999.0,'11111222,11111222,99999999' 
TABS,ioos:station:wmo:42045:1,2004-02-04T16:00:00Z,26.2168,-96.4998,2.0,196.3389996,14.78721407,-99999.0,'11111222,11111222,99999999' 
TABS,ioos:station:wmo:42045:1,2004-02-04T16:30:00Z,26.2168,-96.4998,2.0,205.6523517,16.00780435,-99999.0,'11111222,11111222,99999999' 
TABS,ioos:station:wmo:42045:1,2004-02-04T17:00:00Z,26.2168,-96.4998,2.0,190.4783782,12.97640936,-99999.0,'11111222,11111222,99999999' 
TABS,ioos:station:wmo:42045:1,2004-02-04T17:30:00Z,26.2168,-96.4998,2.0,205.7452361,13.44461602,-99999.0,'11111222,11111222,99999999' 